Hlavní strana
METAR-TAF:

METAR-TAF

Letiště :

Abumusa, Írán

zeměpisná šířka: 25-52-33N, zeměpisná délka: 055-02-01E, výška: 7 m

Aktuální stav počasí

Zpráva byla vytvořena před 28 minutami, v 15:00 UTC
Západoseverozápadní vítr 8 kt
Teplota 21°C
Vlhkost vzduchu 78%
Tlak 1010 hPa
Viditelnost 10 km a více
Žádná oblačnost pod 1500 m, nevyskytují se cumulonimby.

METAR: OIBA 201500Z 30008KT CAVOK 21/17 Q1010

Čas: 18:58 (15:28 UTC)


TAF: chybějící

Stav a předpovědi počasí z více než 4 000 letišť (zprávy METAR a TAF).

Červené a žluté tečky na mapě představují dostupné meteorologické stanice.

Když kurzor umístíte na tečku, zobrazí se název stanice.

Pak kliknutím zobrazíte stav a předpověď počasí.

Chcete-li změnit mapu, kliknutím na zelené tlačítko se znaménkem +mapu přiblížíte, kliknutím na zelené tlačítko se znaménkem – mapu oddálíte a kliknutím na zelené šipky přejdete na sousední mapy.


METAR-TAF: